Regional Weather Roundup
Issued by NWS Cleveland, OH

Home | Current Version | Previous Version | Text Only | Print | Product List | Glossary Off
Versions: 1 2 3 4 5 6 7 8 9 10 11 12 13 14 15 16 17 18 19 20 21 22 23 24 25 26 27 28 29 30 31 32 33 34 35 36 37 38 39 40 41 42 43 44 45 46 47 48 49 50

122
ASUS41 KCLE 111302
RWRCLE
OHIO REGIONAL WEATHER ROUNDUP
NATIONAL WEATHER SERVICE CLEVELAND, OH
800 AM EST MON DEC 11 2017

NOTE: "FAIR" INDICATES FEW OR NO CLOUDS BELOW 12,000 FEET WITH NO
SIGNIFICANT WEATHER AND/OR OBSTRUCTIONS TO VISIBILITY.

OHZ001>008-015>018-024>027-034-035-043-044-111400-
   NORTHWEST OHIO

CITY           SKY/WX    TMP DP  RH WIND       PRES   REMARKS
DEFIANCE       CLOUDY    28  22  78 S5        30.05R WCI  23
FINDLAY        CLOUDY    24  19  81 SE5       30.05R WCI  18
TOLEDO EXPRESS CLOUDY    25  23  92 SE5       30.04S WCI  19
TOLEDO EXEC    CLOUDY    25  21  85 CALM      30.07R
LIMA           CLOUDY    27  23  85 SW5       30.04S WCI  22
$$

OHZ009>014-019>023-028>033-038-089-111400-
   NORTHEAST OHIO

CITY           SKY/WX    TMP DP  RH WIND       PRES   REMARKS
CLE-HOPKINS    CLOUDY    29  21  72 SW6       30.05F WCI  23
CLE-LAKEFRONT  CLOUDY    30  18  60 SW10      30.03S WCI  21
CUY CO. ARPT   CLOUDY    30  21  69 W7        30.02S WCI  23
LORAIN-ELYRIA  CLOUDY    23  16  74 W5        30.05R WCI  17
ASHTABULA      CLOUDY    28  20  71 W5        30.02S WCI  23
AKRON-CANTON   CLOUDY    29  18  63 SW5       30.03S WCI  24
WOOSTER        CLOUDY    27  19  72 CALM      30.03S
MANSFIELD      PTCLDY    21  18  88 S6        30.02S WCI  13
YOUNGSTOWN     FLURRIES  29  21  72 SW7       30.01S WCI  22
$$

OHZ042-051>053-060>062-070>072-077>081-111400-
  SOUTHWEST OHIO

CITY           SKY/WX    TMP DP  RH WIND       PRES   REMARKS
CINC-COVINGTON CLOUDY    23  22  96 S3        30.08S
CINC-LUNKEN    CLOUDY    23  21  92 CALM      30.12F
HAMILTON       MOCLDY    23  21  92 CALM      30.11R
DAYTON         MOCLDY    26  22  84 SW7       30.07F WCI  18
WRIGHT-PAT AFB CLOUDY    28  23  81 S6        30.06F WCI  21
DAYTON GENERAL CLOUDY    25  22  88 SW3       30.07S
WILMINGTON     CLOUDY    22  20  92 SE3       30.05F
$$

OHZ036-037-039>041-045>050-054>059-063>069-073>076-082>088-111400-
  CENTRAL AND SOUTHEAST OHIO

CITY           SKY/WX    TMP DP  RH WIND       PRES   REMARKS
COLUMBUS       CLOUDY    31  22  69 S5        30.07S WCI  26
OSU AIRPORT    CLOUDY    30  23  75 S5        30.06R WCI  25
BOLTON FIELD   CLOUDY    28  21  74 SW6       30.08R WCI  22
RICKENBACK AFB CLOUDY    29  23  75 SW6       30.08R WCI  23
NEWARK         CLOUDY    30  21  69 W6        30.06S WCI  24
MARION         CLOUDY    20  15  81 S6        30.05R WCI  12
LANCASTER      CLOUDY    30  22  72 SW5       30.08S WCI  25
ZANESVILLE     CLOUDY    31  20  63 W3        30.07S
NEW PHILLY     NOT AVBL
$$




USA.gov is the U.S. government's official web portal to all federal, state and local government web resources and services.